Home > Weather > Mahón > Past weeks

Flag for Spain Past Weather in Mahón, Menorca, Spain — Yesterday and Last 2 Weeks

Now
69 °F

Mild.


Feels Like: 69 °F
Forecast: 68 / 79 °F
Wind: No wind

Location: Menorca / Mahon

Current Time: Jul 2, 2016 at 4:06:21 AM

Latest Report: Jul 2, 2016 at 3:00 AM


Visibility: N/A

Pressure: 30.06 "Hg

Humidity: 77%

Dew Point: 62 °F

Location of MahónLocation

Past Weather in Mahón — Graph

°F

Mahón Temperature Yesterday

Maximum temperature yesterday: 88 °F (at 2:00 PM)
Minimum temperature yesterday: 65 °F (at 6:00 AM)
Average temperature yesterday: 78 °F

High & Low Weather Summary for the Past Weeks

 TemperatureHumidityPressure
High88 °F (Jun 25, 11:00 AM)92% (Jul 1, 4:00 AM)30.24 "Hg (Jul 1, 4:00 AM)
Low58 °F (Jun 19, 3:00 AM)28% (Jun 24, 9:00 AM)29.91 "Hg (Jun 17, 4:00 AM)
Average74 °F62%30.10 "Hg
* Reported Jun 17 2:00 AM — Jul 2 2:00 AM, Mahón, Weather by CustomWeather, © 2016

Note: Actual official high and low records may vary slightly from our data, if they occured in-between our weather recording intervals... More about our weather records

Advertising

Mahón Weather History for the Previous 24 Hours

Scroll right to see more
 ConditionsComfort  
Time TempWeatherWind HumidityBarometerVisibility
2:00 AM
Sat, Jul 2
72 °FPassing clouds.3 mph69%30.06 "Hg12 mi
1:00 AM72 °FMild.2 mph76%30.06 "HgN/A
12:00 AM73 °FMild.2 mph79%30.07 "HgN/A
11:00 PM
Fri, Jul 1
73 °FPassing clouds.1 mph80%30.06 "Hg12 mi
10:00 PM74 °FMild.No wind75%30.06 "HgN/A
9:00 PM77 °FMild.6 mph64%30.05 "HgN/A
8:00 PM83 °FSunny.6 mph41%30.04 "Hg12 mi
7:00 PM86 °FPleasantly warm.6 mph36%30.03 "HgN/A
6:00 PM87 °FPleasantly warm.7 mph37%30.04 "HgN/A
5:00 PM88 °FSunny.8 mph35%30.05 "Hg12 mi
4:00 PM87 °FPleasantly warm.9 mph36%30.06 "HgN/A
3:00 PM87 °FPassing clouds.9 mph41%30.06 "Hg12 mi
2:00 PM88 °FPassing clouds.9 mph38%30.06 "Hg16 mi
1:00 PM87 °FWarm.9 mph41%30.07 "HgN/A
12:00 PM87 °FPleasantly warm.9 mph36%30.07 "HgN/A
11:00 AM85 °FPassing clouds.8 mph39%30.07 "Hg16 mi
10:00 AM84 °FPleasantly warm.7 mph39%30.07 "HgN/A
9:00 AM82 °FPassing clouds.5 mph40%30.06 "Hg16 mi
8:00 AM77 °FPassing clouds.No wind62%30.05 "Hg12 mi
7:00 AM67 °FMild.1 mph90%30.04 "HgN/A
6:00 AM65 °FMild.No wind92%30.04 "HgN/A
5:00 AM66 °FPassing clouds.No wind92%30.04 "Hg9 mi
4:00 AM67 °FMild.No wind92%30.05 "HgN/A
Weather by CustomWeather, © 2016

See weather overviewHow to use our weather pages